TimeEDT,TemperatureF,Dew PointF,Humidity,Sea Level PressureIn,VisibilityMPH,Wind Direction,Wind SpeedMPH,Gust SpeedMPH,PrecipitationIn,Events,Conditions,WindDirDegrees,DateUTC
12:15 AM,69.6,64.9,85,30.13,10.0,Calm,Calm,-,N/A,,Clear,0,2013-07-21 04:15:00
12:35 AM,67.5,65.3,93,30.12,1.0,Calm,Calm,-,N/A,,Mostly Cloudy,0,2013-07-21 04:35:00
12:55 AM,68.4,65.3,90,30.11,10.0,West,4.6,-,N/A,,Scattered Clouds,260,2013-07-21 04:55:00
1:15 AM,70.2,64.2,81,30.10,10.0,West,5.8,-,N/A,,Clear,260,2013-07-21 05:15:00
1:35 AM,69.8,63.9,81,30.10,10.0,West,4.6,-,N/A,,Clear,270,2013-07-21 05:35:00
1:55 AM,70.0,63.0,78,30.11,10.0,West,6.9,-,N/A,,Clear,270,2013-07-21 05:55:00
2:15 AM,68.2,62.6,82,30.10,10.0,Calm,Calm,-,N/A,,Clear,0,2013-07-21 06:15:00
2:35 AM,66.4,63.9,92,30.10,10.0,Calm,Calm,-,N/A,,Scattered Clouds,0,2013-07-21 06:35:00
2:55 AM,67.5,63.0,85,30.09,10.0,Calm,Calm,-,N/A,,Clear,0,2013-07-21 06:55:00
3:15 AM,68.0,63.0,84,30.08,10.0,WSW,3.5,-,N/A,,Clear,250,2013-07-21 07:15:00
3:35 AM,68.9,62.8,81,30.08,10.0,Calm,Calm,-,N/A,,Clear,0,2013-07-21 07:35:00
3:55 AM,66.0,63.3,91,30.08,10.0,Calm,Calm,-,N/A,,Clear,0,2013-07-21 07:55:00
4:15 AM,67.1,62.6,85,30.08,10.0,Calm,Calm,-,N/A,,Clear,0,2013-07-21 08:15:00
4:35 AM,66.6,63.0,88,30.08,10.0,West,3.5,-,N/A,,Clear,260,2013-07-21 08:35:00
4:55 AM,68.4,62.6,82,30.08,10.0,WNW,5.8,-,N/A,,Clear,290,2013-07-21 08:55:00
5:15 AM,69.6,62.6,78,30.08,10.0,West,9.2,-,N/A,,Scattered Clouds,280,2013-07-21 09:15:00
5:35 AM,69.8,62.6,78,30.09,10.0,WNW,11.5,-,N/A,,Scattered Clouds,290,2013-07-21 09:35:00
5:55 AM,69.8,63.0,79,30.09,10.0,West,10.4,16.1,N/A,,Scattered Clouds,280,2013-07-21 09:55:00
6:15 AM,69.4,63.1,80,30.09,10.0,West,10.4,-,N/A,,Scattered Clouds,270,2013-07-21 10:15:00
6:35 AM,67.3,63.1,87,30.10,10.0,West,6.9,-,N/A,,Scattered Clouds,270,2013-07-21 10:35:00
6:55 AM,68.4,62.8,82,30.10,10.0,Calm,Calm,-,N/A,,Clear,0,2013-07-21 10:55:00
7:15 AM,68.2,63.3,84,30.10,10.0,Calm,Calm,-,N/A,,Clear,0,2013-07-21 11:15:00
7:35 AM,68.0,63.3,85,30.10,10.0,Calm,Calm,-,N/A,,Clear,0,2013-07-21 11:35:00
7:55 AM,69.6,63.5,81,30.11,10.0,NW,6.9,-,N/A,,Scattered Clouds,310,2013-07-21 11:55:00
8:15 AM,70.7,63.5,78,30.11,10.0,WNW,10.4,-,N/A,,Scattered Clouds,300,2013-07-21 12:15:00
8:35 AM,70.0,64.8,83,30.12,10.0,WNW,8.1,-,N/A,,Scattered Clouds,300,2013-07-21 12:35:00
8:55 AM,70.9,63.5,77,30.13,10.0,West,8.1,-,N/A,,Overcast,280,2013-07-21 12:55:00
9:15 AM,72.0,63.5,75,30.13,10.0,West,5.8,-,N/A,,Mostly Cloudy,280,2013-07-21 13:15:00
9:35 AM,72.1,63.7,75,30.13,10.0,West,12.7,18.4,N/A,,Mostly Cloudy,280,2013-07-21 13:35:00
9:55 AM,72.5,63.3,73,30.13,10.0,West,11.5,-,N/A,,Overcast,270,2013-07-21 13:55:00
10:15 AM,72.5,62.4,71,30.14,10.0,West,9.2,-,N/A,,Overcast,270,2013-07-21 14:15:00
10:35 AM,-9999,-9999,N/A,30.14,10.0,West,10.4,-,N/A,,Overcast,270,2013-07-21 14:35:00
10:55 AM,-9999,-9999,N/A,30.15,10.0,West,9.2,-,N/A,,Overcast,280,2013-07-21 14:55:00
11:15 AM,-9999,-9999,N/A,30.15,10.0,West,8.1,-,N/A,,Overcast,270,2013-07-21 15:15:00
11:35 AM,-9999,-9999,N/A,30.15,10.0,West,6.9,-,N/A,,Overcast,270,2013-07-21 15:35:00
11:55 AM,-9999,-9999,N/A,30.14,10.0,WNW,6.9,-,N/A,,Overcast,290,2013-07-21 15:55:00
12:15 PM,-9999,-9999,N/A,30.15,10.0,WSW,6.9,-,N/A,,Overcast,250,2013-07-21 16:15:00
12:35 PM,-9999,-9999,N/A,30.14,10.0,WNW,8.1,-,N/A,,Overcast,290,2013-07-21 16:35:00
12:55 PM,-9999,-9999,N/A,30.14,10.0,West,9.2,-,N/A,,Mostly Cloudy,260,2013-07-21 16:55:00
1:15 PM,-9999,-9999,N/A,30.13,10.0,West,10.4,-,N/A,,Mostly Cloudy,280,2013-07-21 17:15:00
2:15 PM,-9999,-9999,N/A,30.10,10.0,West,11.5,-,N/A,,Mostly Cloudy,270,2013-07-21 18:15:00
2:35 PM,-9999,-9999,N/A,30.09,10.0,WNW,9.2,-,N/A,,Scattered Clouds,300,2013-07-21 18:35:00
2:55 PM,-9999,-9999,N/A,30.09,10.0,West,9.2,-,N/A,,Scattered Clouds,270,2013-07-21 18:55:00
3:15 PM,81.5,60.3,48,30.08,10.0,West,13.8,-,N/A,,Mostly Cloudy,270,2013-07-21 19:15:00
3:35 PM,78.8,60.6,54,30.08,10.0,West,5.8,-,N/A,,Mostly Cloudy,270,2013-07-21 19:35:00
3:55 PM,-9999,-9999,N/A,30.08,10.0,West,8.1,-,N/A,,Scattered Clouds,280,2013-07-21 19:55:00
4:15 PM,79.3,60.3,52,30.07,10.0,West,6.9,-,N/A,,Scattered Clouds,260,2013-07-21 20:15:00
4:35 PM,78.4,58.1,50,30.08,10.0,West,8.1,-,N/A,,Scattered Clouds,270,2013-07-21 20:35:00
4:55 PM,77.5,58.1,51,30.08,10.0,West,8.1,-,N/A,,Scattered Clouds,280,2013-07-21 20:55:00
5:15 PM,76.5,59.5,56,30.09,10.0,West,4.6,-,N/A,,Scattered Clouds,270,2013-07-21 21:15:00
5:35 PM,76.1,60.3,58,30.09,10.0,Calm,Calm,-,N/A,,Mostly Cloudy,0,2013-07-21 21:35:00
5:55 PM,73.2,64.9,75,30.08,10.0,Calm,Calm,-,N/A,,Mostly Cloudy,0,2013-07-21 21:55:00
6:15 PM,73.2,66.2,79,30.08,10.0,SSE,3.5,-,N/A,,Scattered Clouds,160,2013-07-21 22:15:00
6:35 PM,72.0,66.0,81,30.08,10.0,Calm,Calm,-,N/A,,Scattered Clouds,0,2013-07-21 22:35:00
6:55 PM,71.6,65.3,80,30.08,10.0,Calm,Calm,-,N/A,,Mostly Cloudy,0,2013-07-21 22:55:00
7:15 PM,70.2,63.9,80,30.08,10.0,Calm,Calm,-,N/A,,Scattered Clouds,0,2013-07-21 23:15:00
7:35 PM,69.8,64.2,82,30.08,10.0,Calm,Calm,-,N/A,,Scattered Clouds,0,2013-07-21 23:35:00
7:55 PM,69.8,63.0,79,30.09,10.0,Calm,Calm,-,N/A,,Mostly Cloudy,0,2013-07-21 23:55:00
8:15 PM,69.3,62.6,79,30.08,10.0,Calm,Calm,-,N/A,,Scattered Clouds,0,2013-07-22 00:15:00
8:35 PM,70.5,61.3,73,30.09,10.0,Calm,Calm,-,N/A,,Clear,0,2013-07-22 00:35:00
8:55 PM,70.7,61.7,73,30.08,10.0,Calm,Calm,-,N/A,,Clear,0,2013-07-22 00:55:00
9:15 PM,70.0,62.6,77,30.08,10.0,Calm,Calm,-,N/A,,Clear,0,2013-07-22 01:15:00
9:35 PM,68.7,63.0,82,30.09,10.0,Calm,Calm,-,N/A,,Scattered Clouds,0,2013-07-22 01:35:00
9:55 PM,68.2,64.6,88,30.11,10.0,Calm,Calm,-,N/A,,Scattered Clouds,0,2013-07-22 01:55:00
10:15 PM,68.9,64.2,85,30.10,10.0,Calm,Calm,-,N/A,,Scattered Clouds,0,2013-07-22 02:15:00
10:35 PM,67.8,64.4,89,30.10,10.0,Calm,Calm,-,N/A,,Scattered Clouds,0,2013-07-22 02:35:00
10:55 PM,67.1,64.4,91,30.11,10.0,Calm,Calm,-,N/A,,Scattered Clouds,0,2013-07-22 02:55:00
11:15 PM,67.1,64.8,92,30.12,7.0,Calm,Calm,-,N/A,,Mostly Cloudy,0,2013-07-22 03:15:00
11:35 PM,67.1,64.8,92,30.12,7.0,Calm,Calm,-,N/A,Rain,Light Rain,0,2013-07-22 03:35:00
11:55 PM,66.9,64.6,92,30.12,7.0,Calm,Calm,-,N/A,Rain,Light Rain,0,2013-07-22 03:55:00